GW1618 Weather Reports


time (UTC)temp
F
wind
direction
speed
knots
gust
knots
rain 1hr
in
rain 24hr
in
rain mn
in
humidity
%
barometer
mb
20260505053805 56 323 1.7 4.3 0.00 0.00 0.00 76 1011.3
20260505053259 56 302 1.7 4.3 0.00 0.00 0.00 76 1011.3
20260505052753 57 265 2.6 5.2 0.00 0.00 0.00 76 1011.3
20260505052246 57 308 3.5 5.2 0.00 0.00 0.00 76 1011.3
20260505051738 57 308 2.6 6.1 0.00 0.00 0.00 76 1011.3
20260505051236 57 319 1.7 6.1 0.00 0.00 0.00 76 1011.3
20260505050734 57 256 1.7 3.5 0.00 0.00 0.00 76 1011.3
20260505050511 57 321 1.7 4.3 0.00 0.00 0.00 76 1011.2
20260505041731 58 352 3.5 7.8 0.00 0.00 0.00 73 1010.7
20260505041228 58 283 2.6 7.8 0.00 0.00 0.00 73 1010.7
20260505040730 58 335 3.5 8.7 0.00 0.00 0.00 73 1010.7
20260505040229 58 340 4.3 10.4 0.00 0.00 0.00 72 1010.5
20260505035732 58 359 5.2 10.4 0.00 0.00 0.00 72 1010.5
20260505035258 58 326 4.3 8.7 0.00 0.00 0.00 72 1010.5
20260505034515 59 334 6.1 13.0 0.00 0.00 0.00 71 1010.3
20260505034021 59 324 6.1 13.0 0.00 0.00 0.00 70 1010.3
20260505033259 60 4 4.3 10.4 0.00 0.00 0.00 69 1010.2
20260505032228 60 320 7.8 14.8 0.00 0.00 0.00 68 1010.2
20260505032017 61 301 6.1 14.8 0.00 0.00 0.00 67 1010.1
20260505031519 62 344 3.5 8.7 0.00 0.00 0.00 65 1010.1
20260505030729 62 38 4.3 9.6 0.00 0.00 0.00 64 1010.1
20260505030229 62 323 4.3 10.4 0.00 0.00 0.00 64 1009.8
20260505025729 63 354 2.6 10.4 0.00 0.00 0.00 62 1009.8
20260505025231 64 248 3.5 9.6 0.00 0.00 0.00 62 1009.8
20260505024736 64 47 5.2 12.2 0.00 0.00 0.00 61 1009.7
20260505024231 65 352 6.1 12.2 0.00 0.00 0.00 60 1009.7
20260505023729 65 288 5.2 12.2 0.00 0.00 0.00 59 1009.7
20260505023228 66 350 3.5 12.2 0.00 0.00 0.00 57 1009.6
20260505022729 67 57 2.6 6.1 0.00 0.00 0.00 56 1009.6
20260505022231 67 283 2.6 6.1 0.00 0.00 0.00 56 1009.6
20260505021733 67 290 3.5 7.8 0.00 0.00 0.00 55 1009.5
20260505021232 67 313 5.2 10.4 0.00 0.00 0.00 55 1009.5
20260505020733 67 325 6.1 13.0 0.00 0.00 0.00 55 1009.5
20260505020231 67 9 7.0 14.8 0.00 0.00 0.00 55 1009.4
20260505015729 67 300 7.8 14.8 0.00 0.00 0.00 54 1009.4
20260505015231 67 318 6.1 11.3 0.00 0.00 0.00 54 1009.4
20260505014729 68 348 6.1 12.2 0.00 0.00 0.00 54 1009.4
20260505014224 68 315 7.0 13.9 0.00 0.00 0.00 53 1009.4
20260505013714 68 306 7.8 14.8 0.00 0.00 0.00 53 1009.4
20260505013215 68 298 7.8 14.8 0.00 0.00 0.00 54 1009.3
20260505012715 68 315 9.6 16.5 0.00 0.00 0.00 53 1009.3
20260505012241 68 322 10.4 16.5 0.00 0.00 0.00 53 1009.3
20260505011209 69 280 10.4 15.6 0.00 0.00 0.00 53 1009.2
20260505010709 69 304 10.4 19.1 0.00 0.00 0.00 52 1009.2
20260505010209 69 298 10.4 19.1 0.00 0.00 0.00 52 1009.2
20260505005955 70 288 10.4 16.5 0.00 0.00 0.00 51 1009.2
20260505005215 70 308 10.4 16.5 0.00 0.00 0.00 51 1009.2
20260505004707 70 298 9.6 16.5 0.00 0.00 0.00 51 1009.2
20260505004206 71 319 8.7 17.4 0.00 0.00 0.00 50 1009.2
20260505003705 71 257 10.4 17.4 0.00 0.00 0.00 50 1009.2
20260505003446 71 302 11.3 15.6 0.00 0.00 0.00 49 1009.2
20260505002703 71 325 10.4 15.6 0.00 0.00 0.00 48 1009.2
20260505002204 72 301 9.6 15.6 0.00 0.00 0.00 47 1009.2
20260505001703 72 292 10.4 15.6 0.00 0.00 0.00 48 1009.0
20260505001203 72 300 9.6 15.6 0.00 0.00 0.00 48 1009.0
20260505000703 73 252 8.7 15.6 0.00 0.00 0.00 47 1009.0
20260505000204 73 294 7.8 14.8 0.00 0.00 0.00 47 1008.9
20260504235942 73 321 7.0 14.8 0.00 0.00 0.00 46 1008.9
20260504235203 73 304 7.0 10.4 0.00 0.00 0.00 47 1008.9
20260504234703 73 308 9.6 16.5 0.00 0.00 0.00 48 1009.1
20260504234203 73 323 11.3 17.4 0.00 0.00 0.00 47 1009.1
20260504233942 73 4 10.4 17.4 0.00 0.00 0.00 47 1009.1
20260504233203 73 331 9.6 17.4 0.00 0.00 0.00 47 1009.1
20260504232704 73 338 10.4 16.5 0.00 0.00 0.00 47 1009.1
20260504232203 73 323 12.2 17.4 0.00 0.00 0.00 46 1009.1
20260504231703 73 332 10.4 17.4 0.00 0.00 0.00 46 1009.1
20260504231202 74 343 9.6 14.8 0.00 0.00 0.00 45 1009.1
20260504230726 74 344 8.7 14.8 0.00 0.00 0.00 47 1009.1
20260504225701 74 344 8.7 13.0 0.00 0.00 0.00 46 1009.2
20260504225200 74 359 7.8 13.9 0.00 0.00 0.00 46 1009.2
20260504224658 74 342 7.8 13.9 0.00 0.00 0.00 45 1009.4
20260504224200 74 344 7.0 12.2 0.00 0.00 0.00 47 1009.4
20260504223948 74 335 7.8 12.2 0.00 0.00 0.00 47 1009.4
20260504223437 74 333 7.0 12.2 0.00 0.00 0.00 47 1009.6
20260504222644 73 331 7.8 13.9 0.00 0.00 0.00 47 1009.6
20260504222138 73 327 8.7 13.9 0.00 0.00 0.00 47 1009.6
20260504221924 73 19 8.7 13.0 0.00 0.00 0.00 50 1009.6
20260504221135 73 325 8.7 13.0 0.00 0.00 0.00 49 1009.6
20260504220639 73 9 7.8 13.0 0.00 0.00 0.00 49 1009.6
20260504220135 73 17 7.8 12.2 0.00 0.00 0.00 49 1009.7
20260504215635 73 9 6.1 12.2 0.00 0.00 0.00 49 1009.7
20260504215423 73 9 6.1 11.3 0.00 0.00 0.00 48 1009.7
20260504214635 72 359 7.8 11.3 0.00 0.00 0.00 49 1009.8
20260504214131 72 14 8.7 13.0 0.00 0.00 0.00 50 1009.8
20260504213626 71 15 8.7 13.0 0.00 0.00 0.00 51 1009.8
20260504213114 72 23 7.8 12.2 0.00 0.00 0.00 51 1010.1
20260504212843 71 26 7.8 12.2 0.00 0.00 0.00 51 1010.1
20260504212425 71 20 7.0 11.3 0.00 0.00 0.00 52 1010.1
20260504211102 71 22 7.8 10.4 0.00 0.00 0.00 53 1010.2
20260504210602 70 359 7.8 11.3 0.00 0.00 0.00 54 1010.2
20260504210353 70 359 8.7 11.3 0.00 0.00 0.00 55 1010.1
20260504205852 70 359 8.7 11.3 0.00 0.00 0.00 55 1010.1
20260504205352 70 4 7.0 10.4 0.00 0.00 0.00 54 1010.1
20260504204603 70 348 7.0 10.4 0.00 0.00 0.00 54 1010.2
20260504204105 69 20 6.1 10.4 0.00 0.00 0.00 55 1010.2
20260504203606 69 16 6.1 9.6 0.00 0.00 0.00 55 1010.3
20260504203058 68 15 7.8 11.3 0.00 0.00 0.00 57 1010.3
20260504202554 67 20 8.7 11.3 0.00 0.00 0.00 59 1010.3
20260504202046 68 4 7.8 10.4 0.00 0.00 0.00 59 1010.4
20260504201857 67 4 7.0 10.4 0.00 0.00 0.00 59 1010.4
20260504200544 67 19 8.7 10.4 0.00 0.00 0.00 60 1010.5
20260504200039 66 9 8.7 10.4 0.00 0.00 0.00 60 1010.5
20260504195829 66 350 7.8 10.4 0.00 0.00 0.00 61 1010.5
20260504195032 66 9 7.8 10.4 0.00 0.00 0.00 61 1010.5
20260504194533 66 359 8.7 11.3 0.00 0.00 0.00 63 1010.5
20260504194031 65 4 8.7 11.3 0.00 0.00 0.00 62 1010.5
20260504193530 65 4 8.7 11.3 0.00 0.00 0.00 62 1010.7
20260504193028 65 359 8.7 11.3 0.00 0.00 0.00 64 1010.7
20260504192529 65 9 8.7 11.3 0.00 0.00 0.00 64 1010.7
20260504192030 65 359 7.8 10.4 0.00 0.00 0.00 64 1010.8
20260504191821 64 15 8.7 10.4 0.00 0.00 0.00 66 1010.8
20260504191029 64 9 9.6 11.3 0.00 0.00 0.00 66 1010.8
20260504190530 64 15 9.6 11.3 0.00 0.00 0.00 67 1010.9
20260504190030 64 355 7.8 11.3 0.00 0.00 0.00 66 1010.9
20260504185537 64 4 7.0 10.4 0.00 0.00 0.00 65 1010.9
20260504185029 64 13 7.8 10.4 0.00 0.00 0.00 66 1011.0
20260504184524 63 4 8.7 11.3 0.00 0.00 0.00 68 1011.0
20260504184023 63 9 9.6 11.3 0.00 0.00 0.00 67 1011.0
20260504183523 63 21 9.6 11.3 0.00 0.00 0.00 68 1011.0
20260504183020 63 9 8.7 11.3 0.00 0.00 0.00 67 1011.0
20260504182518 63 26 7.8 10.4 0.00 0.00 0.00 67 1011.0
20260504182308 63 14 7.0 10.4 0.00 0.00 0.00 67 1011.1
20260504181757 62 22 8.7 10.4 0.00 0.00 0.00 68 1011.1
20260504181013 62 15 8.7 11.3 0.00 0.00 0.00 69 1011.1
20260504180515 62 4 8.7 11.3 0.00 0.00 0.00 69 1011.0
20260504180012 62 9 8.7 12.2 0.00 0.00 0.00 69 1011.0
20260504175514 62 9 8.7 12.2 0.00 0.00 0.00 71 1011.0
20260504175009 61 4 7.8 9.6 0.00 0.00 0.00 71 1011.0
20260504174510 61 13 7.8 9.6 0.00 0.00 0.00 71 1011.0
20260504174008 61 359 7.8 10.4 0.00 0.00 0.00 71 1011.0
20260504173503 61 359 8.7 10.4 0.00 0.00 0.00 72 1011.1
20260504173004 60 26 8.7 10.4 0.00 0.00 0.00 73 1011.1
20260504172502 60 4 8.7 10.4 0.00 0.00 0.00 73 1011.1
20260504172023 60 15 7.8 9.6 0.00 0.00 0.00 73 1011.0
20260504170432 60 9 6.1 8.7 0.00 0.00 0.00 72 1010.9
20260504160409 58 355 3.5 4.3 0.00 0.00 0.00 74 1010.7
20260504150844 58 52 0.9 2.6 0.00 0.00 0.00 72 1010.3
20260504150334 58 127 0.9 1.7 0.00 0.00 0.00 72 1010.2
20260504141319 55 42 0.9 1.7 0.00 0.00 0.00 83 1009.9
20260504141053 54 359 0.9 1.7 0.00 0.00 0.00 83 1009.9
20260504140310 54 353 0.9 1.7 0.00 0.00 0.00 84 1009.8
20260504130747 53 233 1.7 2.6 0.00 0.00 0.00 85 1009.2
20260504130234 53 248 1.7 3.5 0.00 0.00 0.00 85 1009.1
20260504120202 53 256 0.0 0.9 0.00 0.00 0.00 84 1008.8
20260504110614 54 256 0.0 0.0 0.00 0.00 0.00 83 1008.7
20260504100533 56 256 0.0 0.9 0.00 0.00 0.00 79 1008.5
20260504081939 59 233 0.9 1.7 0.00 0.00 0.00 74 1008.6
20260504081439 60 228 0.0 0.9 0.00 0.00 0.00 73 1008.6
20260504080937 60 219 0.0 1.7 0.00 0.00 0.00 72 1008.6
20260504080431 60 217 0.9 1.7 0.00 0.00 0.00 73 1008.6
20260504070347 61 359 0.9 1.7 0.00 0.00 0.00 68 1008.5
20260504070119 61 359 0.9 1.7 0.00 0.00 0.00 71 1008.5